QPF
0.00 0.00 0.00 0.00 0.00 0.00 0.00 0.00 0.00 0.00 0.00 0.00 0.00 0.00 0.00 0.00 0.00 0.00 0.00 0.00 0.00 0.00 0.00 0.00 0.00 0.00 0.00 0.00 0.00 0.00 0.00 0.00 0.00 0.00 0.00 0.00 0.00 0.00 0.00 0.00 0.00 0.00 0.00 0.00 0.00 0.00 0.00 0.00 0.00
0.00 0.00 0.00 0.00 0.00 0.00 0.00 0.00 0.00 0.00 0.00 0.00 0.00 0.00 0.00 0.00 0.00 0.00 0.00 0.00 0.00 0.00 0.00 0.00 0.00 0.00 0.00 0.00 0.00 0.00 0.00 0.00 0.00 0.00 0.00 0.00 0.00 0.00 0.00 0.00 0.00 0.00 0.00 0.00 0.00 0.00 0.00 0.00 0.00
0.00 0.00 0.00 0.00 0.00 0.00 0.00 0.00 0.00 0.00 0.00 0.00 0.00 0.00 0.00 0.00 0.00 0.00 0.00 0.00 0.00 0.00 0.00 0.00 0.00 0.00 0.00 0.00 0.00 0.00 0.00 0.00 0.00 0.00 0.00 0.01 0.01 0.01 0.00 0.00 0.00 0.00 0.00 0.00 0.00 0.00 0.00 0.00 0.00
0.00 0.00 0.00 0.00 0.00 0.00 0.00 0.00 0.00 0.00 0.00 0.00 0.00 0.00 0.00 0.00 0.00 0.00 0.00 0.00 0.00 0.00 0.00 0.00 0.00 0.00 0.00 0.00 0.00 0.00 0.00 0.00 0.00 0.00 0.01 0.01 0.01 0.00 0.01 0.00 0.00 0.00 0.00 0.00 0.00 0.01 0.01 0.00 0.00
0.00 0.00 0.00 0.00 0.00 0.00 0.00 0.00 0.00 0.00 0.00 0.00 0.00 0.00 0.00 0.00 0.00 0.00 0.00 0.00 0.00 0.00 0.00 0.00 0.00 0.00 0.00 0.00 0.00 0.00 0.00 0.00 0.00 0.00 0.00 0.00 0.00 0.02 0.02 0.01 0.00 0.00 0.00 0.00 0.00 0.00 0.01 0.01 0.00
0.00 0.00 0.00 0.00 0.00 0.00 0.00 0.00 0.00 0.00 0.00 0.00 0.00 0.00 0.00 0.00 0.00 0.00 0.00 0.00 0.00 0.00 0.00 0.00 0.00 0.00 0.00 0.00 0.00 0.00 0.00 0.00 0.00 0.00 0.00 0.00 0.00 0.01 0.01 0.03 0.02 0.02 0.01 0.01 0.01 0.01 0.02 0.02 0.01
0.00 0.00 0.00 0.00 0.00 0.00 0.00 0.00 0.00 0.00 0.00 0.00 0.00 0.00 0.00 0.00 0.00 0.00 0.00 0.00 0.00 0.00 0.00 0.00 0.00 0.00 0.00 0.00 0.00 0.00 0.00 0.00 0.00 0.00 0.00 0.00 0.00 0.00 0.00 0.00 0.00 0.00 0.00 0.01 0.01 0.01 0.01 0.02 0.04
0.00 0.00 0.00 0.00 0.00 0.00 0.00 0.00 0.00 0.00 0.00 0.00 0.00 0.00 0.00 0.00 0.00 0.00 0.00 0.00 0.00 0.00 0.00 0.00 0.00 0.00 0.00 0.00 0.00 0.00 0.00 0.00 0.00 0.00 0.00 0.00 0.00 0.00 0.00 0.00 0.00 0.00 0.00 0.00 0.00 0.00 0.01 0.02 0.02
0.00 0.00 0.00 0.00 0.00 0.00 0.00 0.00 0.00 0.00 0.00 0.00 0.00 0.00 0.00 0.00 0.00 0.00 0.00 0.00 0.00 0.00 0.00 0.00 0.00 0.00 0.00 0.00 0.00 0.00 0.00 0.00 0.00 0.00 0.00 0.00 0.00 0.00 0.00 0.00 0.00 0.00 0.00 0.00 0.00 0.00 0.00 0.01 0.00
0.00 0.00 0.00 0.00 0.00 0.00 0.00 0.00 0.00 0.00 0.00 0.00 0.00 0.00 0.00 0.00 0.00 0.00 0.00 0.00 0.00 0.00 0.00 0.00 0.00 0.00 0.00 0.00 0.00 0.00 0.00 0.00 0.00 0.00 0.00 0.00 0.00 0.00 0.00 0.00 0.00 0.00 0.00 0.00 0.01 0.03 0.04 0.04 0.01
0.00 0.00 0.00 0.00 0.00 0.00 0.00 0.00 0.00 0.00 0.00 0.00 0.00 0.00 0.00 0.00 0.00 0.00 0.00 0.00 0.00 0.00 0.00 0.00 0.00 0.00 0.00 0.00 0.00 0.00 0.00 0.00 0.00 0.00 0.00 0.00 0.00 0.00 0.00 0.00 0.00 0.00 0.00 0.00 0.00 0.00 0.01 0.00 0.00
0.00 0.00 0.00 0.00 0.00 0.00 0.00 0.00 0.00 0.00 0.00 0.00 0.00 0.00 0.00 0.00 0.00 0.00 0.00 0.00 0.00 0.00 0.00 0.00 0.00 0.00 0.00 0.00 0.00 0.00 0.00 0.00 0.00 0.00 0.00 0.00 0.00 0.00 0.00 0.00 0.00 0.00 0.00 0.00 0.00 0.00 0.00 0.00 0.00
0.00 0.00 0.00 0.00 0.00 0.00 0.00 0.00 0.00 0.00 0.00 0.00 0.00 0.00 0.00 0.00 0.00 0.00 0.00 0.00 0.00 0.00 0.00 0.00 0.00 0.00 0.00 0.00 0.00 0.00 0.00 0.00 0.00 0.00 0.00 0.00 0.00 0.00 0.00 0.00 0.00 0.00 0.00 0.00 0.00 0.00 0.00 0.00 0.00
0.00 0.00 0.00 0.00 0.00 0.00 0.00 0.00 0.00 0.00 0.00 0.00 0.00 0.00 0.00 0.00 0.00 0.00 0.00 0.00 0.00 0.00 0.00 0.00 0.00 0.00 0.00 0.00 0.00 0.00 0.00 0.00 0.00 0.00 0.00 0.00 0.00 0.00 0.00 0.00 0.00 0.00 0.00 0.00 0.00 0.00 0.00 0.00 0.01
0.00 0.00 0.00 0.00 0.00 0.00 0.00 0.00 0.00 0.00 0.00 0.00 0.00 0.00 0.00 0.00 0.00 0.00 0.00 0.00 0.00 0.00 0.00 0.00 0.00 0.00 0.00 0.00 0.00 0.00 0.00 0.00 0.00 0.00 0.00 0.00 0.00 0.00 0.00 0.00 0.00 0.00 0.00 0.00 0.00 0.00 0.00 0.00 0.01
0.00 0.00 0.00 0.00 0.00 0.00 0.00 0.00 0.00 0.00 0.00 0.00 0.00 0.00 0.00 0.00 0.00 0.00 0.00 0.00 0.00 0.00 0.00 0.00 0.00 0.00 0.00 0.00 0.00 0.00 0.00 0.00 0.00 0.00 0.00 0.00 0.00 0.00 0.00 0.00 0.00 0.00 0.00 0.00 0.00 0.00 0.00 0.00 0.00
0.00 0.00 0.00 0.00 0.00 0.00 0.00 0.00 0.00 0.00 0.00 0.00 0.00 0.00 0.00 0.00 0.00 0.00 0.00 0.00 0.00 0.00 0.00 0.00 0.00 0.00 0.00 0.00 0.00 0.00 0.00 0.00 0.00 0.00 0.00 0.00 0.00 0.00 0.00 0.00 0.00 0.00 0.00 0.00 0.00 0.00 0.00 0.00 0.00
0.00 0.00 0.00 0.00 0.00 0.00 0.00 0.00 0.00 0.00 0.00 0.00 0.00 0.00 0.00 0.00 0.00 0.00 0.00 0.00 0.00 0.00 0.00 0.00 0.00 0.00 0.00 0.00 0.00 0.00 0.00 0.00 0.00 0.00 0.00 0.00 0.00 0.00 0.00 0.00 0.00 0.00 0.00 0.00 0.00 0.00 0.00 0.00 0.01
0.00 0.00 0.00 0.00 0.00 0.00 0.00 0.00 0.00 0.00 0.00 0.00 0.00 0.00 0.00 0.00 0.00 0.00 0.00 0.00 0.00 0.00 0.00 0.00 0.00 0.00 0.00 0.00 0.00 0.00 0.00 0.00 0.00 0.00 0.00 0.00 0.00 0.00 0.00 0.00 0.00 0.00 0.00 0.00 0.00 0.00 0.00 0.01 0.00
0.00 0.00 0.00 0.00 0.00 0.00 0.00 0.00 0.00 0.00 0.00 0.00 0.00 0.00 0.00 0.00 0.00 0.00 0.00 0.00 0.00 0.00 0.00 0.00 0.00 0.00 0.00 0.00 0.00 0.00 0.00 0.00 0.00 0.00 0.00 0.00 0.00 0.00 0.00 0.00 0.00 0.00 0.00 0.00 0.00 0.00 0.03 0.07 0.01
0.00 0.00 0.00 0.00 0.00 0.00 0.00 0.00 0.00 0.00 0.00 0.00 0.00 0.00 0.00 0.00 0.00 0.00 0.00 0.00 0.00 0.00 0.00 0.00 0.00 0.00 0.00 0.00 0.00 0.00 0.00 0.00 0.00 0.00 0.00 0.00 0.00 0.00 0.00 0.00 0.00 0.00 0.00 0.00 0.00 0.00 0.02 0.01 0.00
0.00 0.00 0.00 0.00 0.00 0.00 0.00 0.00 0.00 0.00 0.00 0.00 0.00 0.00 0.00 0.00 0.00 0.00 0.00 0.00 0.00 0.00 0.00 0.00 0.00 0.00 0.00 0.00 0.00 0.00 0.00 0.00 0.00 0.00 0.00 0.00 0.00 0.00 0.00 0.00 0.00 0.00 0.00 0.00 0.00 0.00 0.00 0.00 0.00
0.00 0.00 0.00 0.00 0.00 0.00 0.00 0.00 0.00 0.00 0.00 0.00 0.00 0.00 0.00 0.00 0.00 0.00 0.00 0.00 0.00 0.00 0.00 0.00 0.00 0.00 0.00 0.00 0.00 0.00 0.00 0.00 0.00 0.00 0.00 0.00 0.00 0.00 0.00 0.00 0.00 0.00 0.00 0.00 0.00 0.00 0.00 0.00 0.00
0.00 0.00 0.00 0.00 0.00 0.00 0.00 0.00 0.00 0.00 0.00 0.00 0.00 0.00 0.00 0.00 0.00 0.00 0.00 0.00 0.00 0.00 0.00 0.00 0.00 0.00 0.00 0.00 0.00 0.00 0.00 0.00 0.00 0.00 0.00 0.00 0.00 0.00 0.00 0.00 0.00 0.00 0.00 0.00 0.00 0.00 0.00 0.00 0.00
0.00 0.00 0.00 0.00 0.00 0.00 0.00 0.00 0.00 0.00 0.00 0.00 0.00 0.00 0.00 0.00 0.00 0.00 0.00 0.00 0.00 0.00 0.00 0.00 0.00 0.00 0.00 0.00 0.00 0.00 0.00 0.00 0.00 0.00 0.00 0.00 0.00 0.00 0.00 0.00 0.00 0.00 0.00 0.00 0.00 0.00 0.00 0.00 0.00
0.00 0.00 0.00 0.00 0.00 0.00 0.00 0.00 0.00 0.00 0.00 0.00 0.00 0.00 0.00 0.00 0.00 0.00 0.00 0.00 0.00 0.00 0.00 0.00 0.00 0.00 0.00 0.00 0.00 0.00 0.00 0.00 0.00 0.00 0.00 0.00 0.00 0.00 0.00 0.00 0.00 0.00 0.00 0.00 0.00 0.00 0.00 0.00 0.00
0.00 0.00 0.00 0.00 0.00 0.00 0.00 0.00 0.00 0.00 0.00 0.00 0.00 0.00 0.00 0.00 0.00 0.00 0.00 0.00 0.00 0.00 0.00 0.00 0.00 0.00 0.00 0.00 0.00 0.00 0.00 0.00 0.00 0.00 0.00 0.00 0.00 0.00 0.00 0.00 0.00 0.00 0.00 0.00 0.00 0.00 0.00 0.00 0.00
0.00 0.00 0.00 0.00 0.00 0.00 0.00 0.00 0.00 0.00 0.00 0.00 0.00 0.00 0.00 0.00 0.00 0.00 0.00 0.00 0.00 0.00 0.00 0.00 0.00 0.00 0.00 0.00 0.00 0.00 0.00 0.00 0.00 0.00 0.00 0.00 0.00 0.00 0.00 0.00 0.00 0.00 0.00 0.00 0.00 0.00 0.00 0.00 0.00
0.00 0.00 0.00 0.00 0.00 0.00 0.00 0.00 0.00 0.00 0.00 0.00 0.00 0.00 0.00 0.00 0.00 0.00 0.00 0.00 0.00 0.00 0.00 0.00 0.00 0.00 0.00 0.00 0.00 0.00 0.00 0.00 0.00 0.00 0.00 0.00 0.00 0.00 0.00 0.00 0.00 0.00 0.00 0.00 0.00 0.00 0.00 0.00 0.00
0.00 0.00 0.00 0.00 0.00 0.00 0.00 0.00 0.00 0.00 0.00 0.00 0.00 0.00 0.00 0.00 0.00 0.00 0.00 0.00 0.00 0.00 0.00 0.00 0.00 0.00 0.00 0.00 0.00 0.00 0.00 0.00 0.00 0.00 0.00 0.00 0.00 0.00 0.00 0.00 0.00 0.00 0.00 0.00 0.00 0.00 0.00 0.00 0.00
MSLP
1012.80 1012.93 1013.03 1013.50 1014.72 1015.05 1014.24 1012.64 1011.22 1010.19 1009.31 1008.59 1008.59 1008.97 1009.28 1009.31 1010.17 1010.20 1008.29 1008.53 1008.60 1009.17 1009.86 1010.47 1011.09 1011.55 1011.85 1012.10 1012.39 1012.73 1012.98 1013.21 1013.40 1013.53 1013.72 1014.00 1014.14 1014.25 1014.41 1014.43 1014.41 1014.47 1014.51 1014.57 1014.49 1014.54 1014.62 1014.87 1014.91
1012.69 1013.13 1013.00 1013.55 1014.62 1015.00 1013.39 1011.73 1010.56 1009.43 1008.61 1008.22 1008.09 1008.00 1008.35 1008.32 1008.38 1008.35 1008.36 1008.38 1008.41 1008.83 1009.55 1010.13 1010.66 1011.04 1011.48 1011.90 1012.24 1012.53 1012.85 1012.99 1013.25 1013.43 1013.53 1013.73 1013.92 1013.93 1014.15 1014.34 1014.26 1014.36 1014.35 1014.47 1014.39 1014.37 1014.57 1014.90 1014.73
1012.26 1012.30 1013.03 1013.88 1014.46 1014.18 1012.67 1010.76 1009.67 1008.53 1008.15 1007.98 1007.92 1007.77 1007.50 1007.54 1007.55 1007.64 1007.47 1007.84 1008.46 1008.96 1009.33 1009.76 1010.27 1010.75 1011.17 1011.50 1011.88 1012.24 1012.55 1012.74 1012.90 1013.19 1013.45 1013.45 1013.66 1013.79 1013.76 1013.96 1014.05 1014.06 1014.06 1014.16 1014.15 1014.23 1014.41 1014.51 1014.72
1012.09 1012.59 1013.47 1013.88 1013.96 1012.78 1011.62 1009.83 1009.43 1008.80 1007.73 1007.54 1007.33 1007.74 1007.41 1006.57 1006.85 1006.85 1007.10 1007.83 1008.42 1009.01 1009.20 1009.53 1010.04 1010.52 1010.85 1011.35 1011.66 1012.03 1012.23 1012.49 1012.68 1012.90 1013.06 1013.22 1013.37 1013.61 1013.50 1013.59 1013.80 1013.84 1013.81 1013.82 1013.87 1013.85 1014.10 1014.26 1014.49
1012.34 1013.16 1013.76 1013.77 1013.21 1011.83 1010.46 1009.22 1008.88 1008.45 1008.08 1007.42 1007.43 1007.25 1007.23 1006.59 1006.58 1006.80 1007.08 1007.66 1008.24 1008.87 1009.11 1009.43 1009.77 1010.34 1010.69 1010.98 1011.37 1011.72 1011.97 1012.24 1012.36 1012.48 1012.60 1012.83 1013.04 1013.27 1013.10 1013.42 1013.52 1013.49 1013.47 1013.53 1013.58 1013.72 1013.85 1013.95 1013.98
1012.98 1013.64 1014.03 1013.56 1012.44 1011.01 1009.72 1008.64 1008.41 1008.01 1007.53 1007.35 1007.52 1007.49 1007.11 1006.72 1006.97 1006.77 1006.89 1007.41 1007.96 1008.45 1008.96 1009.35 1009.67 1010.00 1010.39 1010.74 1011.25 1011.60 1011.80 1011.97 1012.24 1012.34 1012.36 1012.52 1012.61 1012.85 1012.93 1013.16 1013.17 1013.16 1013.22 1013.21 1013.27 1013.34 1013.45 1013.61 1013.88
1012.92 1013.91 1013.62 1012.88 1011.77 1010.56 1009.14 1008.00 1007.82 1007.54 1007.35 1007.01 1007.12 1007.27 1007.02 1006.70 1006.81 1007.18 1007.25 1007.59 1008.01 1008.50 1008.99 1009.25 1009.55 1009.83 1010.26 1010.59 1010.89 1011.23 1011.45 1011.77 1011.84 1012.09 1012.33 1012.33 1012.39 1012.63 1012.83 1012.97 1012.95 1012.90 1012.95 1012.97 1013.01 1013.04 1013.15 1013.40 1013.66
1012.50 1013.39 1013.27 1012.36 1011.38 1009.71 1008.34 1007.54 1007.32 1007.40 1007.03 1006.82 1006.93 1007.07 1006.82 1006.37 1006.69 1007.55 1007.84 1008.04 1008.33 1008.62 1008.99 1009.35 1009.51 1009.90 1010.03 1010.40 1010.61 1010.92 1011.22 1011.37 1011.60 1011.87 1012.21 1012.24 1012.29 1012.47 1012.64 1012.77 1012.78 1012.78 1012.82 1012.85 1012.87 1012.75 1012.83 1013.21 1013.42
1012.09 1013.03 1012.90 1011.54 1010.85 1009.20 1008.19 1007.77 1007.40 1006.86 1006.94 1006.70 1006.58 1006.58 1006.24 1006.54 1006.88 1007.58 1008.08 1008.41 1008.64 1008.79 1008.89 1009.16 1009.43 1009.76 1010.17 1010.54 1010.73 1010.82 1011.05 1011.18 1011.38 1011.56 1011.90 1012.06 1012.23 1012.42 1012.62 1012.75 1012.67 1012.66 1012.70 1012.65 1012.64 1012.56 1012.55 1012.73 1013.00
1011.99 1012.31 1011.33 1009.71 1009.24 1008.51 1008.12 1007.91 1007.57 1007.17 1006.54 1006.21 1006.53 1006.03 1006.36 1006.88 1007.19 1007.33 1007.72 1007.96 1008.34 1008.57 1008.64 1008.82 1009.28 1009.83 1010.22 1010.52 1010.78 1010.99 1011.07 1011.22 1011.27 1011.42 1011.72 1011.87 1012.07 1012.31 1012.46 1012.59 1012.50 1012.48 1012.35 1012.30 1012.34 1012.29 1012.37 1012.45 1012.66
1011.18 1010.80 1009.54 1009.03 1008.68 1008.67 1008.09 1007.52 1007.65 1007.27 1006.68 1005.89 1006.27 1005.84 1006.30 1006.84 1007.19 1006.93 1007.03 1007.00 1006.68 1007.51 1008.28 1008.67 1009.21 1009.66 1010.05 1010.58 1010.91 1010.91 1011.10 1011.22 1011.23 1011.33 1011.55 1011.75 1011.96 1012.20 1012.38 1012.48 1012.47 1012.43 1012.31 1012.40 1012.44 1012.48 1012.58 1012.59 1012.54
1010.68 1009.96 1009.08 1008.30 1008.38 1008.66 1008.10 1007.62 1007.18 1006.97 1006.07 1005.62 1005.46 1005.53 1005.96 1006.51 1006.76 1006.34 1006.52 1006.44 1006.81 1007.42 1007.83 1008.47 1009.11 1009.65 1009.99 1010.38 1010.58 1010.70 1011.10 1011.19 1011.27 1011.17 1011.30 1011.59 1011.86 1012.08 1012.22 1012.28 1012.33 1012.36 1012.23 1012.32 1012.47 1012.52 1012.44 1012.47 1012.48
1010.20 1009.09 1008.69 1008.57 1008.59 1008.12 1007.55 1007.17 1006.89 1006.27 1005.08 1005.19 1005.09 1005.11 1005.26 1005.37 1005.73 1005.52 1005.23 1005.98 1006.66 1007.23 1007.62 1008.40 1009.11 1009.66 1009.99 1010.34 1010.50 1010.83 1011.02 1011.11 1010.93 1010.91 1011.07 1011.24 1011.50 1011.65 1011.73 1011.85 1012.02 1011.96 1012.00 1012.13 1012.26 1012.31 1012.27 1012.36 1012.47
1009.41 1008.81 1008.55 1008.55 1008.63 1007.71 1007.16 1005.94 1006.58 1005.67 1004.91 1004.89 1004.78 1004.72 1004.62 1004.75 1004.83 1005.15 1005.42 1005.46 1006.11 1006.78 1007.58 1008.27 1008.97 1009.56 1009.83 1010.05 1010.40 1010.68 1010.80 1010.78 1010.76 1010.64 1010.66 1010.75 1010.89 1011.09 1011.33 1011.46 1011.51 1011.54 1011.56 1011.75 1011.86 1011.95 1012.03 1012.16 1012.34
1008.79 1008.89 1008.66 1008.37 1008.02 1007.40 1006.71 1005.47 1005.63 1004.82 1004.65 1004.61 1004.38 1004.16 1004.01 1003.95 1004.51 1004.81 1003.97 1004.33 1005.63 1006.55 1007.50 1008.27 1008.79 1009.24 1009.66 1009.95 1010.36 1010.57 1010.53 1010.52 1010.52 1010.35 1010.38 1010.41 1010.52 1010.64 1010.81 1010.87 1010.90 1010.98 1011.23 1011.42 1011.57 1011.69 1011.84 1012.11 1012.31
1009.02 1008.81 1008.42 1007.30 1007.00 1006.76 1006.80 1004.61 1005.17 1004.22 1004.42 1004.27 1003.93 1003.72 1003.47 1003.26 1003.39 1003.34 1003.90 1004.33 1005.04 1006.09 1007.16 1008.09 1008.62 1009.12 1009.54 1009.93 1010.17 1010.35 1010.23 1010.08 1010.13 1010.01 1009.96 1009.95 1010.01 1010.11 1010.36 1010.43 1010.49 1010.55 1010.84 1011.07 1011.38 1011.58 1011.84 1012.09 1012.29
1009.20 1008.72 1008.12 1007.39 1006.16 1006.53 1006.36 1005.09 1004.41 1004.06 1004.13 1003.91 1003.39 1002.96 1002.92 1002.76 1002.84 1002.71 1003.10 1004.14 1005.18 1005.98 1006.88 1007.87 1008.37 1008.90 1009.28 1009.91 1010.06 1010.20 1010.03 1009.84 1009.77 1009.66 1009.60 1009.54 1009.57 1009.67 1009.86 1009.94 1010.06 1010.21 1010.62 1010.91 1011.22 1011.48 1011.69 1012.07 1012.29
1008.50 1008.42 1007.70 1007.00 1006.09 1006.21 1006.01 1005.36 1004.41 1003.75 1003.76 1003.39 1002.91 1002.53 1002.50 1002.47 1001.82 1002.20 1003.15 1004.03 1004.58 1005.76 1006.49 1007.48 1008.24 1008.80 1009.31 1009.76 1009.98 1009.99 1009.62 1009.58 1009.44 1009.37 1009.25 1009.19 1009.30 1009.36 1009.46 1009.57 1009.78 1010.03 1010.44 1010.83 1011.11 1011.34 1011.68 1011.73 1011.88
1007.09 1007.42 1006.98 1005.73 1005.87 1006.33 1006.34 1005.49 1004.19 1003.50 1003.41 1003.07 1002.47 1002.29 1002.03 1001.87 1001.57 1002.12 1002.71 1003.62 1004.35 1005.61 1006.51 1007.25 1008.28 1008.86 1009.25 1009.66 1009.86 1009.69 1009.57 1009.54 1009.29 1009.17 1008.98 1008.98 1008.91 1009.00 1009.13 1009.24 1009.59 1009.89 1010.27 1010.56 1010.80 1011.19 1011.42 1011.67 1011.92
1006.41 1006.70 1006.21 1005.71 1006.23 1006.55 1006.18 1005.20 1003.89 1003.13 1002.68 1002.17 1001.84 1001.44 1001.19 1001.49 1001.78 1002.79 1003.00 1004.00 1004.73 1005.49 1006.42 1007.32 1008.14 1008.66 1008.78 1009.14 1009.21 1009.20 1009.38 1009.34 1009.14 1009.03 1008.85 1008.83 1008.62 1008.66 1008.87 1009.02 1009.39 1009.67 1010.11 1010.45 1010.66 1010.82 1011.21 1011.60 1011.71
1005.67 1005.53 1005.60 1005.77 1006.46 1006.37 1006.03 1004.96 1003.69 1002.20 1001.85 1001.41 1000.96 1000.75 1000.64 1000.98 1002.07 1003.12 1003.78 1004.40 1005.22 1005.96 1006.47 1007.26 1007.92 1008.31 1008.45 1008.80 1008.93 1009.14 1009.35 1009.22 1009.15 1009.00 1008.92 1008.75 1008.56 1008.55 1008.66 1008.88 1009.14 1009.44 1009.70 1010.13 1010.48 1010.71 1010.96 1011.32 1011.79
1004.41 1004.69 1005.78 1006.42 1007.39 1007.39 1006.39 1005.49 1004.33 1002.86 1002.01 1001.30 1000.35 1000.22 1000.33 1001.25 1002.39 1003.26 1004.09 1004.92 1005.43 1006.14 1006.57 1007.13 1007.77 1008.09 1008.36 1008.54 1008.85 1009.13 1009.37 1009.34 1009.20 1009.16 1009.03 1008.75 1008.60 1008.57 1008.56 1008.81 1008.95 1009.17 1009.50 1009.96 1010.27 1010.52 1010.76 1010.99 1011.47
1003.08 1004.36 1005.54 1006.61 1007.37 1007.62 1007.15 1007.06 1003.68 1003.27 1002.07 1000.89 1000.12 1000.08 1000.59 1001.64 1002.76 1003.45 1004.19 1004.84 1005.62 1006.22 1006.68 1007.13 1007.68 1008.06 1008.21 1008.41 1008.68 1009.03 1009.10 1009.15 1009.10 1009.04 1008.96 1008.64 1008.56 1008.56 1008.55 1008.73 1008.90 1009.10 1009.37 1009.76 1010.06 1010.50 1010.86 1011.04 1011.39
1003.86 1004.70 1006.15 1006.87 1007.66 1007.54 1006.85 1006.80 1003.53 1002.91 1001.42 1000.62 999.93 1000.22 1001.10 1002.13 1003.03 1003.68 1004.15 1005.04 1005.77 1006.37 1006.83 1007.29 1007.76 1008.02 1008.07 1008.38 1008.65 1008.80 1008.86 1009.01 1009.01 1009.02 1008.86 1008.72 1008.59 1008.52 1008.47 1008.58 1008.84 1009.02 1009.25 1009.58 1009.99 1010.42 1010.84 1011.02 1011.08
1003.59 1005.04 1007.01 1007.55 1007.79 1006.99 1005.77 1005.88 1002.50 1001.25 1000.43 1000.04 999.79 1000.28 1001.55 1002.44 1003.52 1003.82 1004.41 1005.18 1005.86 1006.35 1006.96 1007.35 1007.72 1007.93 1008.13 1008.47 1008.66 1008.64 1008.76 1008.82 1008.88 1008.92 1008.77 1008.72 1008.59 1008.56 1008.45 1008.50 1008.74 1008.94 1009.17 1009.52 1009.90 1010.39 1010.71 1010.89 1010.98
1002.64 1003.98 1005.09 1006.68 1006.97 1006.06 1004.40 1003.55 1001.45 999.74 999.05 999.10 999.69 1000.23 1001.63 1002.59 1003.80 1003.91 1004.61 1005.02 1005.55 1006.24 1006.82 1007.17 1007.57 1007.89 1008.22 1008.46 1008.53 1008.54 1008.63 1008.72 1008.76 1008.83 1008.69 1008.68 1008.55 1008.47 1008.40 1008.45 1008.70 1008.83 1009.16 1009.53 1009.94 1010.36 1010.70 1010.94 1011.13
1002.01 1002.64 1003.93 1005.17 1005.65 1005.60 1003.40 1001.89 1000.28 999.22 998.98 999.11 999.72 1000.64 1001.71 1002.59 1003.68 1003.97 1004.72 1005.00 1005.51 1006.20 1006.61 1006.92 1007.48 1007.86 1008.16 1008.32 1008.46 1008.55 1008.60 1008.57 1008.80 1008.77 1008.66 1008.59 1008.49 1008.43 1008.37 1008.44 1008.64 1008.84 1009.20 1009.53 1009.99 1010.38 1010.78 1011.05 1011.34
999.75 1001.60 1003.69 1004.45 1005.17 1004.86 1002.90 1001.64 999.89 998.91 998.50 998.97 999.86 1000.76 1001.87 1002.75 1003.75 1004.06 1004.71 1005.07 1005.50 1006.03 1006.39 1006.89 1007.28 1007.67 1007.98 1008.16 1008.33 1008.51 1008.43 1008.61 1008.77 1008.71 1008.72 1008.70 1008.62 1008.55 1008.47 1008.54 1008.76 1009.06 1009.40 1009.68 1010.13 1010.55 1010.94 1011.19 1011.54
999.72 1000.44 1001.71 1003.03 1003.86 1003.63 1002.97 1000.73 998.60 998.03 997.86 998.51 999.17 1000.23 1001.57 1002.47 1003.20 1003.90 1004.55 1005.02 1005.42 1006.02 1006.46 1006.91 1007.39 1007.69 1007.90 1008.12 1008.31 1008.45 1008.39 1008.59 1008.76 1008.74 1008.74 1008.75 1008.70 1008.74 1008.78 1008.70 1008.91 1009.28 1009.67 1010.05 1010.44 1010.86 1011.16 1011.46 1011.82
998.46 999.12 999.99 1001.13 1002.13 1002.60 1001.98 999.95 997.75 997.46 997.42 998.02 998.84 999.93 1001.29 1002.34 1003.13 1003.77 1004.35 1004.85 1005.52 1006.02 1006.58 1006.98 1007.30 1007.64 1007.73 1007.99 1008.27 1008.44 1008.42 1008.68 1008.86 1008.75 1008.73 1008.75 1008.74 1008.74 1008.78 1008.82 1009.00 1009.41 1009.82 1010.34 1010.68 1010.93 1011.29 1011.58 1011.99
Thickness
5777 5778 5778 5769 5736 5722 5717 5737 5763 5762 5771 5787 5789 5777 5768 5773 5752 5735 5796 5793 5792 5785 5773 5761 5752 5746 5741 5737 5733 5728 5724 5720 5717 5715 5712 5708 5706 5705 5703 5704 5704 5704 5704 5704 5706 5708 5709 5707 5707
5776 5773 5773 5757 5723 5707 5720 5750 5757 5766 5781 5786 5786 5786 5782 5778 5787 5788 5788 5793 5791 5782 5771 5760 5752 5746 5739 5731 5726 5721 5717 5714 5710 5707 5706 5704 5702 5702 5699 5697 5699 5698 5699 5698 5700 5700 5700 5698 5701
5778 5777 5758 5737 5719 5711 5725 5757 5767 5776 5780 5779 5778 5787 5785 5782 5794 5793 5800 5794 5785 5776 5767 5758 5749 5742 5735 5729 5723 5718 5713 5710 5707 5703 5699 5698 5696 5694 5696 5693 5692 5693 5695 5693 5693 5694 5693 5693 5692
5771 5763 5753 5728 5721 5737 5745 5763 5769 5769 5782 5782 5781 5771 5788 5802 5795 5801 5800 5790 5781 5771 5763 5755 5746 5740 5735 5728 5722 5716 5711 5706 5703 5699 5696 5693 5692 5687 5690 5689 5686 5686 5687 5687 5687 5687 5686 5685 5686
5762 5746 5725 5723 5727 5744 5757 5768 5772 5765 5769 5776 5773 5767 5772 5794 5801 5799 5795 5788 5778 5768 5761 5752 5745 5738 5732 5727 5721 5715 5710 5704 5700 5697 5695 5691 5688 5684 5687 5680 5679 5680 5681 5680 5680 5679 5678 5680 5680
5737 5733 5712 5715 5732 5750 5760 5769 5770 5767 5769 5772 5765 5761 5772 5790 5788 5792 5791 5784 5777 5768 5759 5749 5742 5737 5731 5725 5717 5711 5705 5700 5695 5691 5689 5686 5684 5680 5678 5673 5673 5673 5673 5673 5672 5673 5673 5673 5673
5731 5714 5712 5725 5738 5745 5757 5771 5764 5765 5762 5765 5769 5756 5771 5782 5786 5785 5782 5778 5771 5763 5754 5747 5740 5735 5728 5721 5715 5709 5704 5697 5694 5688 5682 5681 5680 5675 5671 5667 5666 5666 5665 5665 5664 5665 5666 5665 5665
5733 5718 5718 5726 5732 5742 5769 5770 5770 5762 5762 5776 5773 5752 5756 5781 5782 5776 5772 5768 5763 5757 5750 5743 5738 5730 5725 5718 5713 5707 5701 5696 5690 5684 5676 5674 5672 5668 5664 5661 5660 5660 5659 5657 5657 5658 5657 5654 5656
5735 5702 5701 5725 5728 5746 5763 5762 5770 5773 5763 5770 5773 5769 5775 5778 5775 5768 5763 5758 5753 5750 5746 5741 5735 5728 5721 5713 5708 5702 5696 5691 5685 5680 5672 5668 5665 5661 5657 5654 5654 5653 5651 5650 5651 5651 5651 5650 5649
5718 5695 5714 5748 5748 5750 5751 5755 5757 5754 5754 5765 5763 5774 5775 5770 5767 5764 5758 5755 5749 5746 5744 5739 5732 5723 5716 5709 5703 5697 5692 5685 5681 5675 5669 5665 5660 5656 5653 5649 5648 5647 5646 5644 5644 5644 5642 5642 5643
5717 5709 5744 5744 5752 5747 5747 5749 5750 5746 5743 5765 5756 5767 5767 5763 5760 5762 5761 5760 5760 5752 5742 5735 5726 5719 5714 5705 5697 5693 5685 5680 5676 5672 5666 5660 5655 5651 5647 5643 5641 5640 5638 5636 5634 5633 5632 5632 5635
5704 5721 5740 5747 5748 5736 5737 5743 5742 5745 5754 5771 5770 5765 5763 5757 5757 5761 5758 5759 5754 5746 5741 5731 5721 5713 5709 5700 5694 5687 5680 5675 5671 5668 5661 5656 5650 5646 5643 5639 5635 5632 5631 5629 5627 5625 5625 5625 5627
5700 5723 5731 5732 5729 5733 5740 5734 5736 5742 5769 5770 5768 5761 5760 5762 5762 5764 5767 5760 5751 5743 5737 5728 5717 5708 5703 5695 5689 5680 5675 5670 5667 5664 5658 5652 5647 5643 5639 5636 5630 5628 5626 5623 5620 5618 5617 5617 5617
5707 5714 5718 5717 5717 5731 5729 5739 5730 5743 5763 5757 5758 5756 5758 5762 5762 5759 5757 5757 5749 5742 5733 5725 5715 5705 5699 5692 5684 5677 5671 5667 5662 5660 5655 5651 5646 5640 5635 5632 5628 5625 5622 5617 5614 5612 5611 5611 5611
5706 5692 5700 5707 5717 5718 5735 5717 5717 5748 5750 5740 5748 5752 5755 5763 5759 5756 5767 5763 5748 5739 5729 5720 5711 5703 5695 5688 5679 5673 5667 5663 5659 5656 5651 5648 5642 5637 5633 5628 5625 5622 5616 5611 5608 5607 5605 5604 5603
5686 5686 5680 5713 5725 5724 5719 5695 5714 5743 5730 5730 5738 5746 5752 5761 5761 5766 5763 5757 5749 5739 5728 5716 5708 5699 5691 5683 5676 5669 5665 5662 5658 5654 5649 5645 5639 5634 5629 5625 5620 5616 5610 5606 5603 5602 5599 5597 5596
5662 5664 5674 5693 5728 5712 5701 5692 5717 5729 5722 5723 5738 5747 5751 5759 5759 5766 5763 5751 5744 5735 5725 5712 5705 5697 5688 5678 5672 5666 5663 5660 5657 5652 5648 5643 5638 5633 5627 5622 5618 5612 5606 5603 5600 5597 5595 5591 5591
5657 5661 5676 5685 5716 5702 5693 5687 5711 5723 5718 5725 5738 5747 5751 5754 5764 5765 5756 5747 5744 5732 5722 5710 5701 5692 5683 5674 5668 5662 5661 5659 5654 5651 5646 5642 5637 5631 5625 5620 5614 5608 5604 5599 5595 5592 5590 5591 5591
5684 5673 5673 5709 5710 5693 5682 5684 5708 5718 5717 5725 5735 5740 5748 5751 5763 5760 5754 5746 5741 5728 5717 5707 5695 5686 5678 5670 5664 5660 5658 5654 5651 5647 5644 5640 5634 5628 5622 5617 5611 5607 5602 5597 5594 5591 5591 5591 5590
5673 5669 5678 5700 5697 5686 5681 5684 5711 5720 5726 5734 5743 5749 5754 5757 5757 5747 5746 5739 5732 5724 5712 5701 5692 5683 5677 5670 5664 5661 5656 5652 5648 5645 5642 5637 5632 5627 5621 5615 5611 5606 5601 5596 5594 5595 5593 5592 5593
5667 5672 5686 5686 5682 5683 5680 5680 5703 5728 5731 5739 5747 5752 5758 5759 5747 5739 5735 5729 5722 5713 5706 5698 5688 5681 5676 5668 5663 5657 5652 5648 5644 5642 5638 5634 5630 5624 5619 5614 5611 5606 5603 5598 5597 5597 5597 5596 5595
5660 5688 5682 5676 5659 5642 5675 5640 5689 5710 5718 5733 5748 5753 5758 5754 5741 5735 5728 5720 5714 5707 5701 5695 5686 5678 5672 5666 5660 5654 5647 5643 5641 5637 5634 5631 5627 5622 5618 5614 5611 5608 5604 5600 5600 5601 5602 5602 5600
5676 5689 5677 5669 5653 5650 5659 5638 5689 5698 5709 5730 5747 5753 5754 5744 5734 5730 5725 5719 5709 5702 5697 5691 5682 5674 5669 5664 5658 5651 5645 5641 5639 5635 5631 5629 5624 5620 5617 5614 5611 5608 5604 5603 5604 5603 5603 5603 5603
5676 5668 5659 5655 5640 5615 5658 5647 5675 5691 5715 5732 5747 5755 5742 5733 5729 5727 5724 5713 5704 5697 5692 5685 5677 5671 5668 5661 5655 5649 5644 5640 5636 5632 5629 5625 5621 5618 5616 5615 5612 5610 5608 5607 5607 5607 5605 5606 5609
5660 5640 5612 5613 5610 5614 5672 5649 5693 5710 5723 5736 5744 5747 5734 5729 5723 5723 5718 5708 5699 5694 5687 5680 5674 5669 5665 5657 5650 5646 5643 5639 5635 5632 5628 5624 5620 5617 5617 5617 5614 5612 5612 5611 5611 5609 5609 5610 5612
5655 5649 5627 5615 5616 5642 5679 5653 5688 5730 5743 5743 5744 5745 5731 5726 5718 5720 5713 5705 5700 5692 5685 5680 5673 5668 5661 5654 5648 5645 5642 5637 5634 5630 5627 5623 5619 5619 5619 5619 5618 5617 5616 5615 5613 5613 5612 5612 5614
5647 5645 5658 5644 5647 5635 5669 5686 5715 5732 5733 5739 5739 5733 5729 5723 5716 5715 5706 5703 5697 5689 5684 5680 5673 5666 5659 5653 5648 5645 5641 5637 5632 5628 5626 5623 5620 5620 5621 5622 5622 5621 5620 5618 5616 5615 5615 5615 5616
5670 5668 5639 5634 5625 5625 5656 5679 5698 5723 5736 5738 5732 5730 5723 5719 5713 5711 5705 5700 5695 5689 5684 5678 5672 5666 5659 5654 5649 5645 5642 5638 5632 5628 5626 5622 5620 5619 5622 5623 5624 5622 5621 5619 5618 5616 5616 5617 5618
5650 5649 5644 5648 5630 5626 5636 5668 5716 5731 5738 5739 5738 5733 5723 5719 5715 5711 5705 5699 5694 5686 5682 5676 5670 5665 5660 5655 5650 5645 5643 5639 5634 5629 5626 5624 5622 5620 5622 5624 5624 5623 5622 5620 5619 5618 5619 5619 5619
5673 5660 5659 5659 5637 5643 5649 5670 5729 5733 5740 5741 5740 5734 5723 5716 5713 5709 5704 5697 5690 5684 5679 5675 5670 5665 5662 5657 5652 5647 5643 5638 5634 5631 5629 5627 5625 5625 5624 5626 5627 5624 5623 5621 5620 5621 5620 5621 5621